Regional Weather Roundup
Issued by NWS

Home | Current Version | Previous Version | Text Only | Print | Product List | Glossary Off
Versions: 1 2 3 4 5 6 7 8 9 10 11 12 13 14 15 16 17 18 19 20 21 22 23 24 25 26 27 28 29 30 31 32 33 34 35 36 37 38 39 40 41 42 43 44 45 46 47 48 49 50

000
ASUS43 KTOP 201759
RWRKS

WEATHER ROUNDUP FOR KANSAS
NATIONAL WEATHER SERVICE GOODLAND KS
100 PM CDT WED AUG 20 2014

NOTE:  "FAIR" INDICATES FEW OR NO CLOUDS BELOW 12,000 FEET WITH NO
SIGNIFICANT WEATHER AND/OR OBSTRUCTIONS TO VISIBILITY.

KSZ001>006-013>018-027>032-041>047-201900-
NORTHWEST KANSAS

CITY           SKY/WX    TMP DP  RH WIND       PRES   REMARKS
GOODLAND       SUNNY     91  53  27 W9        29.84S
6HR MIN TEMP:  68; 6HR MAX TEMP:  92;

HAYS           SUNNY     93  66  40 S21G28    29.79F HX  96
HILL CITY      SUNNY     93  65  39 S14       29.77F HX  95
6HR MIN TEMP:  72; 6HR MAX TEMP:  93;

RUSSELL        SUNNY     92  67  43 S18G25    29.79F HX  95
6HR MIN TEMP:  71; 6HR MAX TEMP:  92;

$$

KSZ061>065-074>080-084>089-201900-
SOUTHWEST KANSAS

CITY           SKY/WX    TMP DP  RH WIND       PRES   REMARKS
DODGE CITY     SUNNY     90  64  42 S23G29    29.84F
6HR MIN TEMP:  68; 6HR MAX TEMP:  91;

ELKHART          N/A    N/A N/A N/A MISG        N/A
GARDEN CITY    MOSUNNY   88  65  46 S13       29.83F
6HR MIN TEMP:  65; 6HR MAX TEMP:  90;

GREAT BEND     SUNNY     91  66  43 S22G28    29.81F
LIBERAL        SUNNY     93  63  36 SW22      29.86F
$$

KSZ066>073-081>083-090>101-201900-
SOUTHEAST KANSAS

CITY           SKY/WX    TMP DP  RH WIND       PRES   REMARKS
CHANUTE        SUNNY     93  69  45 S20       29.91F HX  98
6HR MIN TEMP:  73; 6HR MAX TEMP:  93;

COFFEYVILLE    MOSUNNY   91  71  51 S20G28    29.91F HX  97
6HR MIN TEMP:  73; 6HR MAX TEMP:  91;

HUTCHINSON     SUNNY     93  67  42 S20       29.85F HX  96
6HR MIN TEMP:  72; 6HR MAX TEMP:  93;

NEWTON         SUNNY     90  66  45 S20G25    29.90F
PARSONS        SUNNY     90  70  51 SW13G23   29.93F HX  95
6HR MIN TEMP:  74; 6HR MAX TEMP:  91;

WICHITA INTL   MOSUNNY   92  67  43 S20G29    29.86F HX  95
6HR MIN TEMP:  73; 6HR MAX TEMP:  92;

WICHITA JABRA  SUNNY     90  69  50 S16G25    29.87F
6HR MIN TEMP:  73; 6HR MAX TEMP:  90;

WINFIELD       SUNNY     92  71  50 S20G25    29.90S HX  98
6HR MIN TEMP:  72; 6HR MAX TEMP:  92;

$$

KSZ007>012-019>026-033>040-048>060-102>105-201900-
NORTHEAST KANSAS

CITY           SKY/WX    TMP DP  RH WIND       PRES   REMARKS
CONCORDIA      SUNNY     89  74  60 S14G23    29.81S HX  98
6HR MIN TEMP:  71; 6HR MAX TEMP:  89;

EMPORIA        MOSUNNY   91  67  44 S20       29.87F
6HR MIN TEMP:  70; 6HR MAX TEMP:  91;

LAWRENCE       MOSUNNY   93  69  45 S8        29.86F HX  98
6HR MIN TEMP:  74; 6HR MAX TEMP:  95;

MANHATTAN      SUNNY     94  68  42 S16G24    29.82F HX  98
6HR MIN TEMP:  73; 6HR MAX TEMP:  94;

OLATHE IND     SUNNY     92  70  48 SW16G22   29.90F HX  97
6HR MIN TEMP:  74; 6HR MAX TEMP:  92;

OLATHE EXE     MOSUNNY   89  70  53 S9        29.90F
6HR MIN TEMP:  72; 6HR MAX TEMP:  89;

SALINA         SUNNY     92  69  47 S20G25    29.82F HX  97
6HR MIN TEMP:  73; 6HR MAX TEMP:  92;

TOPEKA BILLARD SUNNY     92  71  50 SW12      29.86F HX  98
6HR MIN TEMP:  74; 6HR MAX TEMP:  92;

TOPEKA FORBES  MOSUNNY   93  68  43 SW12      29.86F HX  97
6HR MIN TEMP:  72; 6HR MAX TEMP:  93;

$$



USA.gov is the U.S. government's official web portal to all federal, state and local government web resources and services.